Miscellaneous Local Product
Issued by NWS North Platte, NE

Home | Current Version | Previous Version | Text Only | Print | Product List | Glossary On
Versions: 1 2 3 4 5 6 7 8 9 10 11 12 13 14 15 16 17 18 19 20 21 22 23 24 25 26 27 28 29 30 31 32 33 34 35 36 37 38 39 40 41 42 43 44 45 46 47 48 49 50
000
AXUS43 KLBF 280010
MISLBF


WESTERN AND NORTH CENTRAL NEBRASKA HOURLY WEATHER ROUNDUP
NATIONAL WEATHER SERVICE NORTH PLATTE NE
700 PM CDT FRI MAY 27 2016

NOTE: "FAIR" INDICATES FEW OR NO CLOUDS BELOW 12,000 FEET WITH NO
SIGNIFICANT WEATHER AND/OR OBSTRUCTIONS TO VISIBILITY.

NOTE: STATIONS NOT REPORTING VARIABLES SUCH AS SKY/WEATHER OR
PRESSURE ARE PROVIDED BY RAWS AND APRS NETWORKS AND ARE NOT UNDER
NATIONAL WEATHER SERVICE QUALITY CONTROL.

...OBSERVATIONS IN AND NEAR THE EASTERN PANHANDLE OF NEBRASKA...

CITY           SKY/WX    TMP DP  RH WIND       PRES   REMARKS
PINE RIDGE     CLOUDY    63  43  48 CALM      29.83F
CHADRON        CLOUDY    61  46  57 S3        29.84F
ALLIANCE       CLOUDY    60  46  59 N7        29.84S
SIDNEY         SUNNY     56  50  80 N8        29.85F
BIG SPRINGS      N/A     55  52  90 N3          N/A
$$

...OBSERVATIONS IN NORTHERN NEBRASKA AND FAR SOUTHERN SOUTH DAKOTA...

CITY           SKY/WX    TMP DP  RH WIND       PRES   REMARKS
WINNER         FAIR      70  52  52 N14       29.75F
VALENTINE      SUNNY     67  47  48 N12       29.77F
THEDFORD       MOSUNNY   66  52  61 NE6       29.78S
AINSWORTH      PTSUNNY   66  52  61 N10       29.76F
O`NEILL        MOSUNNY   68  57  68 NE9       29.73F
ORD            MOSUNNY   72  57  59 NE14      29.67F
BROKEN BOW     SUNNY     69  56  62 NE9       29.71F
BUTTE            N/A     66  56  70 N8          N/A
CHAMBERS         N/A     78  56  46 NE5         N/A
EWING            N/A     71  61  70 MISG        N/A
$$

...OBSERVATIONS IN SOUTHWEST NEBRASKA AND FAR NORTHEAST COLORADO...

CITY           SKY/WX    TMP DP  RH WIND       PRES   REMARKS
WRAY           MOCLDY    55  46  71 E3        29.81R
HOLYOKE        FAIR      61  52  72 N15       29.81S
IMPERIAL       LGT RAIN  52  48  86 N24       29.80F
OGALLALA       RAIN      53  50  90 S5        29.80F
NORTH PLATTE   LGT RAIN  60  54  80 N7        29.74F
MCCOOK         CLOUDY    63  56  78 CALM      29.73F
LEXINGTON      CLOUDY    65  57  75 E7        29.71S
PAXTON           N/A     61  54  78 NW8         N/A
STAPLETON        N/A     65  53  65 CALM        N/A
GOTHENBURG       N/A     67  53  61 E8          N/A
CALLAWAY         N/A     65  57  76 NE9         N/A
$$

...OBSERVATIONS IN CENTRAL LINCOLN COUNTY AREA...

CITY           SKY/WX    TMP DP  RH WIND       PRES   REMARKS
N.P. AIRPORT   LGT RAIN  60  54  80 N7        29.74F
N.P. DOWNTOWN    N/A     63  54  73 E3G16       N/A
N.P. SOUTHEAST   N/A     62  54  74 S3          N/A
N.P. HILLCREST   N/A     63  53  69 NE23        N/A
$$

...SOME OBSERVATIONS FROM AROUND THE REGION...

CITY           SKY/WX    TMP DP  RH WIND       PRES   REMARKS
DENVER         CLOUDY    57  41  55 N8        29.91R
LARAMIE        CLOUDY    53  34  48 NE5       29.93S
CHEYENNE       CLOUDY    53  41  63 NE7       29.92R
SCOTTSBLUFF    CLOUDY    60  45  57 W3        29.87F
RAPID CITY     MOSUNNY   61  48  62 SE8       29.83F
BISMARCK       MOSUNNY   69  47  45 CALM      29.78F
PIERRE         CLOUDY    69  52  54 VRB6      29.76F
SIOUX FALLS    CLOUDY    73  59  61 NE8       29.70F
OMAHA          CLOUDY    77  59  53 E6        29.68S
GRAND ISLAND   LGT RAIN  63  59  87 NE8       29.69S
KANSAS CITY    CLOUDY    69  64  84 E6        29.70S
WICHITA        CLOUDY    65  61  87 E10       29.63F
OKLAHOMA CITY  TSTM      68  61  78 S12       29.68R
DALLAS         CLOUDY    79  60  52 S16       29.71F
AMARILLO       SUNNY     76  36  23 NW7       29.77S
DODGE CITY     CLOUDY    70  45  40 SW18      29.63S
HAYS           PTSUNNY   43 N/A N/A N15       29.64R THUNDER
GOODLAND       CLOUDY    55  49  80 N20G33    29.77R
$$




USA.gov is the U.S. government's official web portal to all federal, state and local government web resources and services.